Location: Sceptre
(50.8619°N, 109.2670°W)
Time: 11:01:21
(UTC+00:00)

X-37B - Visible Passes

Search period start: 26 January 2022 00:00
Search period end: 05 February 2022 00:00
Orbit: 334 x 337 km, 45.0° (Epoch: 11 January)

Date Brightness Start Highest point End Pass type
(mag) Time Alt. Az. Time Alt. Az. Time Alt. Az.
29 Jan 2.8 01:34:03 10° S 01:35:16 12° SSE 01:35:38 12° SSE visible
30 Jan 2.4 01:53:18 10° SSW 01:55:16 18° SSE 01:55:16 18° SSE visible
31 Jan 2.4 02:13:12 10° SW 02:14:53 21° SSW 02:14:53 21° SSW visible
01 Feb 2.4 00:58:44 10° SSW 01:00:49 18° SSE 01:02:53 10° ESE visible
01 Feb 3.0 02:33:23 10° WSW 02:34:29 18° SW 02:34:29 18° SW visible
02 Feb 2.1 01:18:39 10° SW 01:21:01 23° S 01:22:51 13° SE visible
02 Feb 3.7 02:53:46 10° WSW 02:54:05 12° WSW 02:54:05 12° WSW visible
03 Feb 2.1 01:38:49 10° WSW 01:41:13 25° S 01:42:28 18° SE visible
04 Feb 2.3 01:59:12 10° WSW 02:01:26 21° SSW 02:02:08 19° S visible
